Regional Weather Roundup
Issued by NWS Northern Indiana

Home | Current Version | Previous Version | Graphics & Text | Print | Product List | Glossary On
Versions: 1 2 3 4 5 6 7 8 9 10 11 12 13 14 15 16 17 18 19 20 21 22 23 24 25 26 27 28 29 30 31 32 33 34 35 36 37 38 39 40 41 42 43 44 45 46 47 48 49 50
000
ASUS43 KIWX 011000
RWRIWX

KIWX WEATHER ROUNDUP
NATIONAL WEATHER SERVICE NORTHERN INDIANA
600 AM EDT SUN MAY 01 2016

NOTE: "FAIR" INDICATES FEW OR NO CLOUDS BELOW 12,000 FEET WITH NO
SIGNIFICANT WEATHER AND/OR OBSTRUCTIONS TO VISIBILITY.

* THESE STATIONS ARE NOT UNDER NWS QUALITY CONTROL. THEY ALSO MAY NOT
  REPORT WEATHER SUCH AS PRECIPITATION OR FOG.

INZ001>027-011100-
NORTHERN INDIANA

CITY           SKY/WX    TMP DP  RH WIND       PRES   REMARKS
GARY*          CLOUDY    46  46 100 N8        29.91R FOG
VALPARAISO     CLOUDY    48  47  96 NE7       29.89S FOG
SOUTH BEND     CLOUDY    48  47  96 E3        29.90F
GOSHEN         CLOUDY    49  47  93 E6        29.90R FOG
ANGOLA*        CLOUDY    46  46 100 E6        29.89S
FORT WAYNE     CLOUDY    50  49  96 NE5       29.89S FOG
PERU/GRISSOM   FOG       52  52 100 NE6       29.86F VSB 3/4

$$
INZ028>050-011100-
CENTRAL INDIANA

CITY           SKY/WX    TMP DP  RH WIND       PRES   REMARKS
LAFAYETTE      FOG       53  53 100 NE5       29.86S VSB 1/4
KOKOMO*        CLOUDY    54  50  87 NE7       29.87S VSB 1
MUNCIE*        CLOUDY    63  59  87 W6        29.88R
INDIANAPOLIS   CLOUDY    62  59  90 W7        29.85F

$$
MIZ043>046-050>051-056>058-064>065-071>073-077>080-011100-
SOUTHWEST LOWER MICHIGAN

CITY           SKY/WX    TMP DP  RH WIND       PRES   REMARKS
BATTLE CREEK   CLOUDY    47  45  93 NE8       29.92S FOG
BENTON HARBOR  CLOUDY    50  47  89 NE6       29.91S
COLDWATER*     CLOUDY    48  48 100 E6        29.90F
HILLSDALE*     CLOUDY    47  47 100 E5        29.90S FOG
HOLLAND        CLOUDY    46  44  93 NE9       29.94F FOG
GRAND RAPIDS   DRIZZLE   45  43  93 NE8       29.95R FOG
KALAMAZOO      CLOUDY    48  45  89 NE5       29.92R
STURGIS*       CLOUDY    47  47  98 E6        29.89S FOG
THREE RIVERS*  CLOUDY    48  48  99 NE6       29.91F FOG

$$
OHZ001>008-015>018-024>025-011100-
NORTHWEST OHIO

CITY           SKY/WX    TMP DP  RH WIND       PRES   REMARKS
DEFIANCE       CLOUDY    50  48  93 NE7       29.89R
FINDLAY        FOG       52  48  86 N5        29.87R VSB 1/2
TOLEDO EXPRESS CLOUDY    48  48 100 N6        29.89R FOG
TOLEDO METCALF CLOUDY    49  47  93 N6        29.89R FOG
LIMA           CLOUDY    59  58  96 W6        29.86R FOG

$$
AND FOR LAKE MICHIGAN COASTAL AND OPEN LAKE BUOY OBSERVATIONS

STATION/POSITION TEMP    WIND        PRES    VSBY  WAVE
                 AIR SEA DIR/SP/G                  HT/PER
                 (F)     (DEG/KT/KT) (MB)    (MI)  (FT/S)
CALUMET HARBOR    45      10/ 11/ 16 1012.2F
MICHIGAN CITY     48      20/  8/  9   N/A
BURNS HARBOR      47      40/ 10/ 12 1012.9F
SAINT JOSEPH      49      10/  1/  5 1013.9R
SOUTH LAKE BUOY   42 40   40/ 14/ 16 1014.0          2/ 4
4 MI NW BRIDGMAN  49 49                N/A           2/ 4

$$
&&




USA.gov is the U.S. government's official web portal to all federal, state and local government web resources and services.